Hourly Data Report for August 12, 2015

All times are specified in Local Standard Time (LST). Add 1 hour to adjust for Daylight Saving Time where and when it is observed.

TORONTO INTL A
ONTARIO

43°40'36.000" N
79°37'50.000" W
173.40 m
6158731
71624
YYZ

Download Data

Hourly Data (August 2015)
Hourly Data Report for August 12, 2015
Temp Definition
°C
Dew Point Temp Definition
°C
Rel Hum Definition
%
Wind Dir Definition
10's deg

Wind Spd Definition
km/h
Visibility Definition
km
Stn Press Definition
kPa
Hmdx Definition


Wind Chill Definition


Weather Definition


TIME
00:00 Legend Double Dagger 17.9 14.3 79 30 17 24.1 99.22     LegendNANA
01:00 Legend Double Dagger 17.6 14.5 82 30 19 24.1 99.22     Clear
02:00 Legend Double Dagger 17.3 14.6 84 32 21 24.1 99.23     LegendNANA
03:00 Legend Double Dagger 17.4 14.7 84 33 24 24.1 99.25     LegendNANA
04:00 Legend Double Dagger 17.3 14.6 84 33 19 24.1 99.30     Mostly Cloudy
05:00 Legend Double Dagger 17.5 14.8 84 33 19 24.1 99.31     LegendNANA
06:00 Legend Double Dagger 17.7 14.8 83 33 19 24.1 99.37     LegendNANA
07:00 Legend Double Dagger 17.8 14.5 81 34 22 24.1 99.41     Mostly Cloudy
08:00 Legend Double Dagger 18.4 14.2 76 34 23 24.1 99.45     LegendNANA
09:00 Legend Double Dagger 20.2 13.7 66 34 27 24.1 99.48     LegendNANA
10:00 Legend Double Dagger 21.1 14.1 64 35 20 24.1 99.52 25   Mostly Cloudy
11:00 Legend Double Dagger 21.4 13.9 62 33 28 24.1 99.53 25   LegendNANA
12:00 Legend Double Dagger 22.1 13.1 56 33 30 24.1 99.49 25   LegendNANA
13:00 Legend Double Dagger 23.1 8.2 38 34 32 24.1 99.48     Mainly Clear
14:00 Legend Double Dagger 22.9 7.2 36 33 29 24.1 99.47     LegendNANA
15:00 Legend Double Dagger 22.9 8.4 39 35 24 24.1 99.47     LegendNANA
16:00 Legend Double Dagger 22.7 9.3 42 35 20 24.1 99.46     Mainly Clear
17:00 Legend Double Dagger 22.4 9.4 43 32 19 24.1 99.48     LegendNANA
18:00 Legend Double Dagger 21.0 7.0 40 34 25 24.1 99.51     LegendNANA
19:00 Legend Double Dagger 19.6 7.5 45 36 26 24.1 99.54     Mainly Clear
20:00 Legend Double Dagger 18.7 8.2 50 35 16 24.1 99.57     LegendNANA
21:00 Legend Double Dagger 18.1 9.0 55 31 15 24.1 99.60     LegendNANA
22:00 Legend Double Dagger 16.4 9.7 64 29 13 24.1 99.60     Mainly Clear
23:00 Legend Double Dagger 15.3 9.5 68 28 14 24.1 99.61     LegendNANA

Notes on Data Quality.

Legend

  • E = Estimated
  • M = Missing
  • NA = Not Available
  • ‡ = Partner data that is not subject to review by the National Climate Archives
Date modified: